Location: Riverton
(43.0250°N, 108.3790°W)
Time: 22:29:28
(UTC-07:00)

Daily predictions for brighter satellites

Satellite Brightness Start Highest point End
(mag) Time Altitude Azimuth Time Altitude Azimuth Time Altitude Azimuth
Cosmos 1954 Rocket 4.2 18:19:01 10° S 18:23:59 49° ESE 18:29:01 10° NNE
USA 215 4.2 18:18:17 10° NE 18:24:21 42° NNW 18:30:23 10° W
Cosmos 1833 4.4 18:19:57 10° S 18:25:26 51° ESE 18:30:53 10° NE
Cosmos 1461 4.0 18:22:47 10° NW 18:26:40 48° WSW 18:30:37 10° SSE
Cosmos 2333 Rocket 3.8 18:27:23 10° N 18:31:00 17° NE 18:34:36 10° E
SL-16 R/B 3.1 18:25:26 10° NNW 18:31:00 56° WSW 18:36:30 10° S
Meteor 1-28 Rocket 3.4 18:36:12 10° N 18:40:02 80° W 18:43:50 10° SSW
Cosmos 1300 Rocket 3.7 18:39:49 10° SSE 18:44:05 50° E 18:48:24 10° NNE
Genesis I 3.6 18:41:11 10° NNW 18:44:58 42° NE 18:48:42 10° ESE
Cosmos 2322 Rocket 3.7 18:41:19 10° NW 18:46:32 40° WSW 18:51:44 10° S
Cosmos 2292 Rocket 4.5 18:43:31 10° S 18:48:52 88° E 18:56:08 10° N
COSMO-SKYMED 1 3.5 18:46:21 10° N 18:50:35 52° WNW 18:54:48 10° SSW
FENGYUN 3A 3.9 18:45:38 10° SE 18:50:49 49° ENE 18:56:02 10° N
Resurs 01 Rocket 2.2 18:47:13 10° SE 18:51:12 35° ENE 18:55:13 10° N
Helios 1A 4.3 18:50:39 13° ESE 18:52:56 20° ENE 18:55:56 10° NNE
FengYun 1-2 T 4.3 18:49:25 10° SE 18:54:43 52° ENE 19:00:03 10° N
SJ-6B 2.7 18:51:14 10° SSE 18:55:13 74° ENE 18:59:08 10° N
NOAA 12 4.2 18:50:04 10° SSE 18:55:23 83° WSW 19:00:46 10° NNW
Cosmos 1023 Rocket 4.4 18:51:16 10° SSW 18:56:19 74° ESE 19:01:28 10° NNE
Helios 1B rocket 3.8 18:57:06 10° NE 19:00:00 18° E 19:02:52 10° SE
GEOS 3 Rocket 4.1 18:57:21 10° NE 19:02:15 39° ESE 19:07:10 10° S
Meteor 1-19 Rocket 4.2 18:57:39 10° N 19:03:22 82° E 19:09:09 10° SSE
Cosmos 1633 2.7 19:00:57 10° SSW 19:04:37 77° W 19:08:20 10° N
Cosmos 2322 3.8 18:59:09 10° NNW 19:04:55 85° WSW 19:10:37 10° SSE
Resurs 1-3 4.0 19:02:16 10° SE 19:06:24 42° ENE 19:10:33 10° N
Cosmos 1741 Rocket 4.0 19:04:01 10° S 19:09:07 57° ESE 19:14:15 10° NNE
Cosmos 405 Rocket 4.0 19:05:59 10° NNE 19:09:13 22° ENE 19:09:28 22° ENE
Cosmos 2181 Rocket 4.1 19:04:07 10° N 19:10:24 85° W 19:16:45 10° S
CZ-2D R/B 3.8 19:09:07 16° SE 19:11:37 34° ENE 19:15:06 10° N
Abrixas rocket 3.0 19:10:13 10° SSW 19:13:17 34° SE 19:14:08 29° ESE
Gbstr 26 Del rocket 2.5 19:09:48 10° SW 19:13:37 85° SE 19:15:48 24° ENE
ALOS 2.2 19:09:36 10° SSE 19:14:16 81° ENE 19:18:58 10° N
H-2A R/B 2.8 19:11:07 10° SSE 19:14:42 50° ENE 19:18:22 10° N
USA 186 4.0 19:18:27 12° NNE 19:18:27 12° NNE 19:18:45 10° NNE
BREEZE-M DEB (TANK) 2.1 19:14:14 10° WNW 19:16:43 88° NE 19:19:59 20° ESE
FREGAT/IRIS 3.9 19:15:15 10° S 19:18:13 44° W 19:21:12 10° NNW
BREEZE-M DEB (TANK) 2.7 19:16:48 10° SW 19:20:28 39° SSE 19:20:48 36° SE
Okean 1 Rocket 3.1 19:16:32 10° S 19:21:02 85° W 19:25:32 10° N
COSMOS 2428 2.6 19:15:48 10° NNW 19:21:31 71° ENE 19:27:11 10° SSE
Cosmos 2237 4.2 19:15:51 10° NNW 19:21:38 89° ENE 19:27:21 10° SSE
Cosmos 2333 4.2 19:16:01 10° NNW 19:21:44 63° ENE 19:26:54 13° SE
Cosmos 2237 Rocket 3.2 19:17:37 10° N 19:22:27 27° NE 19:23:52 25° ENE
Cosmos 1536 2.7 19:19:29 10° S 19:23:27 86° E 19:27:27 10° N
Cosmos 2074 Rocket 4.0 19:17:57 10° S 19:24:05 63° E 19:30:18 10° NNE
Cosmos 1892 Rocket 4.2 19:20:39 10° N 19:24:36 33° ENE 19:25:09 32° E
Cosmos 1570 Rocket 4.0 19:19:42 10° NNW 19:24:58 90° WSW 19:30:12 10° SSE
Meteor 2-4 Rocket 3.6 19:19:36 10° N 19:25:11 88° E 19:30:35 10° S
Meteor 1-23 Rocket 4.2 19:19:53 10° N 19:25:43 74° ENE 19:31:27 10° SSE
Cosmos 1140 Rocket 4.0 19:22:21 10° SSW 19:27:24 60° WNW 19:32:32 10° NNE
Cosmos 2184 Rocket 3.9 19:22:04 10° S 19:28:17 66° E 19:34:30 10° NNE
Cosmos 614 Rocket 4.2 19:27:37 10° SSW 19:32:40 71° WNW 19:37:45 10° NNE
Cosmos 1025 Rocket 2.9 19:30:48 10° N 19:35:12 84° E 19:39:36 10° S
Cosmos 2360 Rocket 3.5 19:31:22 10° NW 19:36:38 41° WSW 19:41:53 10° S
Cosmos 2219 Rocket 2.3 19:32:25 10° NNW 19:37:55 55° ENE 19:40:18 32° ESE
Cosmos 468 Rocket 4.2 19:36:04 10° N 19:41:09 49° ENE 19:42:32 39° ESE
Cosmos 2219 3.2 19:35:38 10° SSW 19:41:23 89° ESE 19:47:10 10° NNE
Spot 2 Rocket 3.7 19:39:57 10° S 19:44:59 71° WSW 19:50:05 10° NNW
Cosmos 2227 Rocket 3.7 19:41:23 10° SSE 19:43:12 19° SSE 19:43:12 19° SSE
Nadezhda 3 Rocket 4.1 19:40:23 10° N 19:46:21 48° ENE 19:48:47 32° SE
Okean 1-7 Rocket 4.5 19:45:54 10° NNW 19:50:17 50° W 19:54:36 10° SSW
Meteor 2-13 Rocket 4.3 19:46:19 10° S 19:52:18 68° E 19:58:22 10° NNE
Cosmos 2341 Rocket 4.3 19:52:57 41° E 19:53:17 41° E 19:59:12 10° NNE
USA 229 DEB 3.8 19:48:06 10° NW 19:55:17 88° SW 19:59:39 27° SSE
USA 229 3.8 19:48:12 10° NW 19:55:23 89° WSW 19:59:42 27° SSE
SL-16 R/B 3.6 19:52:11 10° N 19:55:51 23° NE 19:55:51 23° NE
Cosmos 2285 Rocket 4.0 19:50:34 10° NNW 19:57:02 86° WSW 20:02:15 16° SSE
Cosmos 2154 Rocket 4.0 19:51:16 10° S 19:57:27 59° E 20:03:40 10° NNE
Cosmos 1814 Rocket 4.1 19:54:55 10° NNW 19:59:53 53° ENE 19:59:53 53° ENE
Envisat 3.1 20:01:36 54° ENE 20:01:36 54° ENE 20:06:21 10° N
ERS-1 Rocket 4.2 20:05:19 27° NNE 20:05:19 27° NNE 20:08:06 10° N
NOSS 0 Rocket 3.8 20:01:27 10° NNW 20:07:37 78° ENE 20:09:14 51° SE
NOSS 3-1 (A) 4.3 20:00:39 10° NNW 20:07:51 48° NE 20:09:34 43° E
ATLAS 2AS CENTAUR R/B 4.3 20:06:23 10° NNW 20:12:49 25° NNE 20:14:30 23° NE
Cosmos 2333 Rocket 2.1 20:10:20 10° NNW 20:16:07 87° ENE 20:17:03 65° SSE
Cosmos 1980 3.5 20:15:48 10° NNW 20:21:29 78° ENE 20:21:29 78° ENE
NOSS 3-1 (C) 3.9 20:19:27 10° NNW 20:27:00 72° NE 20:28:32 59° ESE
Resurs 01 Rocket 4.0 20:24:18 10° SSW 20:27:45 22° W 20:31:14 10° NW
Helios 1A 4.3 20:27:18 33° SW 20:28:14 38° W 20:32:08 10° NNW
Cosmos 962 Rocket 4.4 20:31:39 72° NE 20:31:39 72° NE 20:37:14 10° N
Helios 1B rocket 3.8 20:31:34 10° N 20:35:27 39° WNW 20:39:18 10° SW
Meteor 1-12 Rocket 4.5 20:40:20 10° SSW 20:46:19 72° WNW 20:52:15 10° N
Cosmos 2237 Rocket 3.2 21:01:16 10° NW 21:05:45 44° WNW 21:05:45 44° WNW
Cosmos 2219 Rocket 4.2 21:17:15 10° NW 21:21:26 22° W 21:22:05 21° WSW
SL-16 R/B 4.2 21:35:38 10° NNW 21:37:46 23° NW 21:37:46 23° NW
ATLAS 2AS CENTAUR R/B 4.1 21:57:21 10° NNW 22:01:57 37° NNW 22:01:57 37° NNW
